[[{"header":{"parameterUnit":"m.s-1","parameterCategory":1,"la1":30.2991,"la2":30.254,"lo1":-89.0895,"lo2":-89.0444,"dy":0.0017,"dx":0.0017,"nx":28,"ny":28,"refTime":"2023-10-27T03:00:00:Z","depth":0,"parameterNumber":2,"parameterNumberName":"U-component_of_WINDS"},"data":[0,0,0,0,0,0,0,0,0,0,0,0,0,0,0,0,0,0,0,0,0,0,0,0,0,0,0,0,0,0,0,0,0,0,0,0,0,0,0,0,0,0,0,0,0,0,0,0,0,0,0,0,0,0,0,0,0,0,-3.1522,-3.1521,0,-3.1434,-3.1433,-3.1432,-3.1285,-3.1282,-3.128,-3.1277,-3.1187,-3.1187,-3.1187,0,0,0,0,0,0,0,0,0,0,0,0,0,-3.1566,-3.1566,-3.1522,-3.1521,-3.152,-3.1434,-3.1433,-3.1432,-3.1286,-3.1282,-3.1279,-3.1276,-3.1187,-3.1187,-3.1187,0,0,0,0,0,0,0,0,0,0,0,0,0,-3.152,-3.1566,-3.1522,-3.1437,-3.1428,-3.1435,-3.1433,-3.1432,-3.1286,-3.1282,-3.1278,-3.1274,-3.1187,-3.1187,-3.1187,-3.127,0,0,-3.1188,-3.1188,0,0,0,0,0,0,0,0,-3.1522,-3.1518,-3.145,-3.1443,-3.1433,-3.1366,-3.1415,-3.1378,-3.1287,-3.134,-3.1277,-3.1272,-3.125,-3.1245,-3.1237,-3.1266,-3.1262,-3.1188,-3.1188,-3.1188,-3.1188,0,0,0,0,0,0,0,-3.1526,-3.1521,-3.1487,-3.145,-3.1439,-3.1404,-3.1392,-3.1408,-3.1319,-3.1335,-3.1324,-3.1316,-3.1245,-3.1238,-3.1234,-3.1261,-3.1188,-3.1188,-3.1188,-3.1188,-3.1358,-3.1362,0,0,0,0,0,0,-3.1542,-3.1525,-3.149,-3.1485,-3.1469,-3.1406,-3.1394,-3.1392,-3.1319,-3.1303,-3.132,-3.131,-3.1239,-3.1234,-3.123,-3.1325,-3.1188,-3.1188,-3.1189,-3.1354,-3.1359,-3.1364,0,0,0,0,0,0,-3.1543,-3.154,-3.1494,-3.1502,-3.1493,-3.141,-3.1409,-3.1392,-3.1385,-3.1307,-3.129,-3.1328,-3.1236,-3.123,-3.1262,-3.1319,-3.1189,-3.1189,-3.1348,-3.1355,-3.1361,-3.1513,0,0,0,0,0,0,-3.1545,-3.1541,-3.1571,-3.1504,-3.1493,-3.1527,-3.1412,-3.1394,-3.1386,-3.1372,-3.1311,-3.1297,-3.1232,-3.1263,-3.1263,-3.1317,-3.1189,-3.1343,-3.1351,-3.1359,-3.1503,-3.1524,-3.1543,0,0,0,0,0,-3.1547,-3.1616,-3.1573,-3.157,-3.1529,-3.153,-3.1524,-3.1448,-3.1391,-3.1421,-3.1371,-3.1298,-3.1314,-3.1268,-3.1266,-3.1322,-3.1339,-3.1349,-3.1358,-3.1494,-3.152,-3.1542,0,0,0,0,0,0,-3.169,-3.1605,-3.1557,-3.1606,-3.1577,-3.1505,-3.154,-3.1478,-3.1464,-3.1451,-3.1358,-3.1346,-3.1391,-3.1359,-3.1309,-3.14,-3.1315,-3.1325,-3.1419,-3.1443,-3.1463,-3.1469,-3.1189,0,0,0,0,0,-3.1728,-3.1736,-3.1662,-3.1713,-3.1701,-3.1624,-3.1621,-3.1566,-3.1532,-3.1518,-3.1471,-3.1441,-3.1439,-3.1439,-3.1433,-3.1498,-3.1484,-3.1536,-3.1556,-3.1573,-3.1583,-3.1618,-3.1641,-3.1396,-3.1396,-3.1396,0,0,-3.1805,-3.176,-3.177,-3.174,-3.1711,-3.1723,-3.1614,-3.1629,-3.1638,-3.152,-3.1548,-3.1514,-3.1474,-3.1524,-3.1544,-3.1499,-3.1648,-3.1586,-3.16,-3.16,-3.1631,-3.1654,-3.1675,-3.1403,-3.1401,-3.14,0,0,-3.1952,-3.1918,-3.1958,-3.1932,-3.189,-3.1839,-3.185,-3.1789,-3.1761,-3.1788,-3.1702,-3.1711,-3.1709,-3.1685,-3.1673,-3.1818,-3.1751,-3.1819,-3.1922,-3.1958,-3.1977,-3.1994,-3.2047,-3.2067,-3.1828,-3.1829,-3.1829,0,-3.2053,-3.2066,-3.1986,-3.2009,-3.1999,-3.1897,-3.1938,-3.1916,-3.1874,-3.1871,-3.1822,-3.182,-3.1786,-3.1831,-3.1867,-3.186,-3.187,-3.1824,-3.1981,-3.1997,-3.2011,-3.2061,-3.2081,-3.1837,-3.1836,-3.1835,-3.1835,0,-3.2194,-3.2205,-3.2242,-3.2207,-3.2201,-3.2233,-3.216,-3.2165,-3.2112,-3.2068,-3.2099,-3.2055,-3.204,-3.2047,-3.1994,-3.2086,-3.2059,-3.1997,-3.191,-3.2044,-3.2089,-3.2108,-3.1849,-3.1846,-3.1844,-3.1842,0,0,-3.2423,-3.2347,-3.2362,-3.2346,-3.2295,-3.2302,-3.2332,-3.2318,-3.2325,-3.2301,-3.2324,-3.2328,-3.2271,-3.2258,-3.2202,-3.2234,-3.2354,-3.2168,-3.2166,-3.2205,-3.2455,-3.2502,-3.2525,-3.2311,-3.2314,-3.2317,-3.2459,0,-3.2559,-3.2603,-3.2535,-3.2595,-3.2606,-3.2512,-3.2538,-3.251,-3.2471,-3.2475,-3.2432,-3.2436,-3.236,-3.2352,-3.2379,-3.2334,-3.2403,-3.2323,-3.2332,-3.2333,-3.2344,-3.2548,-3.2597,-3.2732,-3.2476,-3.2479,-3.2481,0,-3.2721,-3.2708,-3.2771,-3.272,-3.2722,-3.2746,-3.273,-3.2735,-3.2704,-3.2673,-3.2662,-3.2597,-3.2624,-3.2542,-3.2579,-3.2526,-3.2526,-3.2505,-3.2509,-3.2506,-3.2414,-3.2551,-3.2774,-3.2794,-3.2507,-3.2505,-3.2503,0,-3.2884,-3.2882,-3.2919,-3.2909,-3.285,-3.287,-3.2847,-3.2811,-3.2809,-3.2796,-3.2794,-3.2785,-3.2779,-3.2774,-3.271,-3.2655,-3.2756,-3.2667,-3.2732,-3.2734,-3.2756,-3.2755,-3.2982,-3.2758,-3.2757,-3.2757,-3.2757,0,-3.3041,-3.3083,-3.2992,-3.3015,-3.3061,-3.2984,-3.3032,-3.2999,-3.297,-3.2986,-3.2904,-3.2922,-3.2836,-3.2845,-3.2796,-3.2835,-3.2833,-3.281,-3.2796,-3.2817,-3.282,-3.2815,-3.2804,-3.2762,-3.2761,-3.276,-3.2759,0,-3.3229,-3.3169,-3.3205,-3.3149,-3.3136,-3.3172,-3.3124,-3.3144,-3.3102,-3.3124,-3.3125,-3.3059,-3.3065,-3.3002,-3.2996,-3.2963,-3.3026,-3.2996,-3.3037,-3.3027,-3.3096,-3.3091,-3.3327,-3.3355,-3.3114,-3.3116,-3.3118,0,-3.3332,-3.3363,-3.3312,-3.3318,-3.3299,-3.3309,-3.3308,-3.3235,-3.3237,-3.3207,-3.3232,-3.3232,-3.3228,-3.3244,-3.3196,-3.3192,-3.3161,-3.3245,-3.316,-3.3181,-3.3163,-3.3162,-3.3166,-3.3262,-3.3265,-3.3267,-3.3269,0,-3.3524,-3.3494,-3.3495,-3.3488,-3.3489,-3.3479,-3.3464,-3.3473,-3.3395,-3.3402,-3.3409,-3.3407,-3.3403,-3.3405,-3.3393,-3.337,-3.3308,-3.3297,-3.3312,-3.3333,-3.3356,-3.3345,-3.3085,-3.3291,-3.3289,-3.3287,-3.3286,-3.3285,-3.3672,-3.3696,-3.3665,-3.367,-3.3653,-3.3642,-3.3659,-3.3621,-3.3626,-3.3617,-3.3575,-3.3591,-3.3563,-3.3541,-3.3525,-3.3537,-3.3496,-3.3518,-3.3523,-3.3529,-3.3542,-3.3356,-3.3534,-3.3533,-3.3533,-3.3532,-3.3532,0,-3.3859,-3.3836,-3.3842,-3.3825,-3.383,-3.3774,-3.3755,-3.3764,-3.3779,-3.3758,-3.3758,-3.3769,-3.3772,-3.3727,-3.3725,-3.3743,-3.3715,-3.3745,-3.3743,-3.3739,-3.3578,-3.3565,-3.3769,-3.3769,-3.3769,-3.3769,-3.3769,-3.3768,-3.3956,-3.3995,-3.3964,-3.3995,-3.3971,-3.3987,-3.3982,-3.3973,-3.3957,-3.3972,-3.3976,-3.3947,-3.3917,-3.3914,-3.3915,-3.3902,-3.3905,-3.3946,-3.3923,-3.3773,-3.375,-3.3728,-3.3716,-3.3947,-3.3947,-3.4083,-3.4084,-3.4085]},{"header":{"parameterUnit":"m.s-1","parameterCategory":1,"la1":30.2991,"la2":30.254,"lo1":-89.0895,"lo2":-89.0444,"dy":0.0017,"dx":0.0017,"nx":28,"ny":28,"refTime":"2023-10-27T03:00:00:Z","depth":0,"parameterNumber":3,"parameterNumberName":"V-component_of_WINDS"},"data":[0,0,0,0,0,0,0,0,0,0,0,0,0,0,0,0,0,0,0,0,0,0,0,0,0,0,0,0,0,0,0,0,0,0,0,0,0,0,0,0,0,0,0,0,0,0,0,0,0,0,0,0,0,0,0,0,0,0,-1.6159,-1.6161,0,-1.6315,-1.6317,-1.6319,-1.6394,-1.6394,-1.6394,-1.6394,-1.6549,-1.6553,-1.6557,0,0,0,0,0,0,0,0,0,0,0,0,0,-1.592,-1.5924,-1.6159,-1.6161,-1.6163,-1.6315,-1.6317,-1.6319,-1.6394,-1.6394,-1.6394,-1.6394,-1.6547,-1.6552,-1.6557,0,0,0,0,0,0,0,0,0,0,0,0,0,-1.6044,-1.5925,-1.6159,-1.6219,-1.6226,-1.6315,-1.6317,-1.632,-1.6394,-1.6394,-1.6394,-1.6394,-1.6546,-1.6552,-1.6558,-1.6598,0,0,-1.6577,-1.658,0,0,0,0,0,0,0,0,-1.6037,-1.6053,-1.6208,-1.6215,-1.6223,-1.6335,-1.629,-1.6413,-1.6394,-1.633,-1.6394,-1.6394,-1.6477,-1.6489,-1.6519,-1.6605,-1.6612,-1.6578,-1.6581,-1.6584,-1.6586,0,0,0,0,0,0,0,-1.6028,-1.6047,-1.6221,-1.621,-1.6219,-1.6236,-1.6253,-1.6313,-1.6402,-1.6335,-1.6341,-1.6359,-1.6481,-1.6512,-1.6523,-1.6614,-1.6577,-1.6583,-1.6587,-1.6589,-1.6739,-1.6739,0,0,0,0,0,0,-1.6011,-1.6039,-1.6216,-1.6225,-1.6128,-1.624,-1.626,-1.6299,-1.6401,-1.6417,-1.6359,-1.6362,-1.6502,-1.6515,-1.6528,-1.6582,-1.6584,-1.659,-1.6593,-1.6739,-1.6739,-1.6739,0,0,0,0,0,0,-1.6005,-1.6026,-1.6209,-1.6134,-1.6159,-1.6244,-1.6288,-1.6302,-1.6333,-1.6419,-1.6435,-1.6375,-1.6502,-1.652,-1.658,-1.6588,-1.6593,-1.6598,-1.6739,-1.6739,-1.6739,-1.6688,0,0,0,0,0,0,-1.5998,-1.6023,-1.6041,-1.6134,-1.6162,-1.626,-1.6288,-1.6305,-1.6344,-1.635,-1.6438,-1.6453,-1.6503,-1.657,-1.6586,-1.6597,-1.6603,-1.6738,-1.6739,-1.6739,-1.6689,-1.6686,-1.6684,0,0,0,0,0,-1.5989,-1.6019,-1.6042,-1.6062,-1.6186,-1.626,-1.6277,-1.6336,-1.6345,-1.6362,-1.6417,-1.645,-1.6584,-1.6576,-1.6594,-1.6607,-1.6738,-1.6739,-1.6739,-1.669,-1.6687,-1.6684,0,0,0,0,0,0,-1.5924,-1.6033,-1.6058,-1.612,-1.618,-1.6273,-1.6297,-1.633,-1.6389,-1.6391,-1.646,-1.648,-1.6533,-1.6576,-1.6565,-1.665,-1.6664,-1.6668,-1.662,-1.6618,-1.6615,-1.6604,-1.6608,0,0,0,0,0,-1.5917,-1.597,-1.6061,-1.6106,-1.6136,-1.6211,-1.6245,-1.6285,-1.635,-1.6376,-1.6436,-1.6496,-1.6552,-1.6587,-1.6643,-1.6695,-1.6715,-1.6712,-1.671,-1.6707,-1.671,-1.674,-1.674,-1.6741,-1.6741,-1.6741,0,0,-1.5902,-1.5968,-1.5997,-1.6095,-1.6147,-1.6198,-1.6232,-1.6285,-1.6323,-1.6384,-1.6445,-1.649,-1.6562,-1.6618,-1.6646,-1.6655,-1.6714,-1.6708,-1.6705,-1.671,-1.674,-1.674,-1.674,-1.6742,-1.6742,-1.6741,0,0,-1.5903,-1.5958,-1.6002,-1.6053,-1.6131,-1.6181,-1.6191,-1.6278,-1.6311,-1.6374,-1.642,-1.6465,-1.656,-1.6609,-1.6646,-1.6663,-1.6695,-1.6679,-1.6665,-1.6693,-1.6693,-1.6694,-1.6699,-1.67,-1.6682,-1.6681,-1.6681,0,-1.5875,-1.5956,-1.602,-1.6071,-1.6111,-1.6169,-1.6212,-1.6258,-1.635,-1.6376,-1.6385,-1.6505,-1.6557,-1.6625,-1.6629,-1.6657,-1.667,-1.667,-1.6689,-1.6689,-1.6691,-1.6697,-1.6699,-1.6679,-1.6679,-1.6679,-1.668,0,-1.5917,-1.5973,-1.5998,-1.6087,-1.613,-1.6177,-1.6245,-1.6281,-1.6317,-1.6364,-1.6426,-1.6491,-1.6561,-1.658,-1.6615,-1.6652,-1.6655,-1.6676,-1.6692,-1.6687,-1.6694,-1.6697,-1.6675,-1.6676,-1.6677,-1.6678,0,0,-1.5883,-1.6005,-1.6013,-1.6054,-1.6144,-1.6187,-1.6234,-1.6304,-1.6333,-1.6394,-1.6435,-1.6513,-1.6532,-1.6574,-1.6615,-1.6639,-1.6648,-1.6657,-1.6659,-1.6653,-1.6692,-1.6677,-1.6678,-1.6669,-1.667,-1.667,-1.6686,0,-1.5896,-1.5988,-1.6045,-1.6112,-1.6163,-1.6218,-1.6259,-1.6318,-1.6363,-1.6411,-1.646,-1.6515,-1.6536,-1.6561,-1.6588,-1.6641,-1.6656,-1.664,-1.6707,-1.6708,-1.6688,-1.6682,-1.6667,-1.6679,-1.6689,-1.669,-1.669,0,-1.5924,-1.5985,-1.6057,-1.6141,-1.6164,-1.6201,-1.6269,-1.6314,-1.638,-1.6411,-1.6458,-1.6499,-1.655,-1.656,-1.663,-1.6618,-1.6648,-1.6678,-1.668,-1.6689,-1.6699,-1.6691,-1.6684,-1.6686,-1.6695,-1.6694,-1.6694,0,-1.5892,-1.5991,-1.6047,-1.608,-1.6178,-1.6203,-1.6244,-1.6311,-1.6348,-1.6406,-1.6431,-1.6494,-1.6528,-1.6574,-1.663,-1.6633,-1.6694,-1.671,-1.6721,-1.6719,-1.6732,-1.6731,-1.673,-1.675,-1.675,-1.675,-1.675,0,-1.5901,-1.5943,-1.6034,-1.6069,-1.6117,-1.6181,-1.6226,-1.6272,-1.633,-1.6373,-1.6423,-1.6462,-1.6533,-1.658,-1.6624,-1.6675,-1.669,-1.6715,-1.6726,-1.6711,-1.6708,-1.6733,-1.6733,-1.6751,-1.6751,-1.675,-1.675,0,-1.5873,-1.5936,-1.6001,-1.6088,-1.6111,-1.6143,-1.6217,-1.6251,-1.6298,-1.6352,-1.6368,-1.6442,-1.65,-1.656,-1.6637,-1.6667,-1.6716,-1.6731,-1.6694,-1.6701,-1.6708,-1.6707,-1.6724,-1.6729,-1.6745,-1.6744,-1.6744,0,-1.5876,-1.591,-1.6001,-1.6034,-1.6075,-1.6127,-1.6166,-1.6229,-1.6267,-1.6344,-1.6369,-1.6431,-1.6484,-1.6573,-1.6632,-1.6691,-1.6709,-1.671,-1.6718,-1.6701,-1.6709,-1.6706,-1.671,-1.6708,-1.6707,-1.6707,-1.6707,0,-1.5873,-1.5902,-1.5957,-1.6022,-1.6067,-1.6121,-1.6177,-1.6201,-1.6274,-1.6314,-1.6374,-1.6415,-1.6495,-1.6555,-1.6621,-1.6662,-1.6696,-1.6704,-1.6709,-1.6695,-1.6672,-1.6684,-1.6688,-1.6703,-1.6704,-1.6704,-1.6704,-1.6704,-1.5861,-1.5893,-1.5962,-1.6021,-1.607,-1.612,-1.6157,-1.6209,-1.6261,-1.6332,-1.6365,-1.6425,-1.6488,-1.6581,-1.6621,-1.6667,-1.6677,-1.6685,-1.6687,-1.6689,-1.6685,-1.6664,-1.6679,-1.668,-1.668,-1.668,-1.668,0,-1.5861,-1.5907,-1.5961,-1.6038,-1.6084,-1.6112,-1.6175,-1.6211,-1.6264,-1.6321,-1.6372,-1.644,-1.6498,-1.6561,-1.6622,-1.6647,-1.6664,-1.6661,-1.666,-1.6669,-1.6672,-1.6662,-1.6647,-1.6647,-1.6647,-1.6647,-1.6647,-1.6647,-1.5866,-1.5922,-1.5959,-1.6039,-1.6085,-1.6145,-1.6179,-1.6225,-1.627,-1.6345,-1.6394,-1.6435,-1.6494,-1.656,-1.6614,-1.663,-1.6651,-1.6643,-1.6664,-1.6666,-1.6669,-1.6671,-1.6662,-1.6647,-1.6647,-1.6657,-1.6657,-1.6657]}]]